TimeEDT,TemperatureF,Dew PointF,Humidity,Sea Level PressureIn,VisibilityMPH,Wind Direction,Wind SpeedMPH,Gust SpeedMPH,PrecipitationIn,Events,Conditions,WindDirDegrees,DateUTC
12:54 AM,50.0,48.0,93,29.95,-9999.0,North,-9999.0,-,N/A,,Unknown,0,2013-10-03 04:54:00
1:54 AM,48.0,46.0,93,29.97,-9999.0,North,-9999.0,-,N/A,,Unknown,0,2013-10-03 05:54:00
2:54 AM,46.9,45.0,93,29.98,-9999.0,North,-9999.0,-,N/A,,Unknown,0,2013-10-03 06:54:00
3:54 AM,45.0,44.1,97,29.99,-9999.0,North,-9999.0,-,N/A,,Unknown,0,2013-10-03 07:54:00
4:54 AM,44.1,42.1,93,30.01,-9999.0,North,-9999.0,-,N/A,,Unknown,0,2013-10-03 08:54:00
5:54 AM,43.0,41.0,93,30.02,-9999.0,North,-9999.0,-,N/A,,Unknown,0,2013-10-03 09:54:00
6:54 AM,42.1,41.0,96,30.06,-9999.0,North,-9999.0,-,N/A,,Unknown,0,2013-10-03 10:54:00
7:54 AM,44.1,42.1,93,30.08,-9999.0,North,-9999.0,-,N/A,,Unknown,0,2013-10-03 11:54:00
8:54 AM,48.0,44.1,86,30.09,-9999.0,North,-9999.0,-,N/A,,Unknown,0,2013-10-03 12:54:00
9:54 AM,55.0,46.9,74,30.09,-9999.0,North,-9999.0,-,N/A,,Unknown,0,2013-10-03 13:54:00
10:54 AM,62.1,45.0,53,30.08,-9999.0,North,-9999.0,-,N/A,,Unknown,0,2013-10-03 14:54:00
11:54 AM,64.9,45.0,48,30.06,-9999.0,North,-9999.0,-,N/A,,Unknown,0,2013-10-03 15:54:00
12:54 PM,69.1,44.1,40,30.04,-9999.0,North,-9999.0,-,N/A,,Unknown,0,2013-10-03 16:54:00
1:54 PM,68.0,43.0,40,30.03,-9999.0,North,-9999.0,-,N/A,,Unknown,0,2013-10-03 17:54:00
2:54 PM,71.1,44.1,38,30.02,-9999.0,North,-9999.0,-,N/A,,Unknown,0,2013-10-03 18:54:00
3:54 PM,72.0,43.0,35,30.01,-9999.0,North,-9999.0,-,N/A,,Unknown,0,2013-10-03 19:54:00
4:54 PM,70.0,43.0,38,30.00,-9999.0,North,-9999.0,-,N/A,,Unknown,0,2013-10-03 20:54:00
5:54 PM,64.9,46.0,50,30.01,-9999.0,North,-9999.0,-,N/A,,Unknown,0,2013-10-03 21:54:00
6:54 PM,59.0,48.0,67,30.04,-9999.0,North,-9999.0,-,N/A,,Unknown,0,2013-10-03 22:54:00
7:54 PM,55.0,48.0,77,30.06,-9999.0,North,-9999.0,-,N/A,,Unknown,0,2013-10-03 23:54:00
8:54 PM,51.1,46.9,86,30.07,-9999.0,North,-9999.0,-,N/A,,Unknown,0,2013-10-04 00:54:00
9:54 PM,50.0,46.0,86,30.08,-9999.0,North,-9999.0,-,N/A,,Unknown,0,2013-10-04 01:54:00
10:54 PM,48.0,45.0,89,30.07,-9999.0,North,-9999.0,-,N/A,,Unknown,0,2013-10-04 02:54:00